SQ3X-13 Weather Reports


time (UTC)temp
C
wind
direction
speed
KPH
gust
KPH
rain 1hr
cm
rain 24hr
cm
rain mn
cm
humidity
%
barometer
mb
20260905132002 20 270 27.4 1289.1 0.00 0.00 0.00 4 1009.7
20260905131002 20 270 27.4 1289.1 0.00 0.00 0.00 4 1009.7
20260905130003 20 270 27.4 801.5 0.00 0.00 0.00 4 1009.7
20260905125003 20 271 27.4 498.9 0.00 0.00 0.00 5 1009.7
20260905124003 20 271 27.4 498.9 0.00 0.00 0.00 5 1009.7
20260905123002 20 271 27.4 310.6 0.00 0.00 0.00 5 1009.7
20260905122002 20 271 27.4 193.1 0.00 0.00 0.00 5 1009.9
20260905121002 20 271 27.4 120.7 0.00 0.00 0.00 5 1009.9
20260905120003 20 271 27.4 120.7 0.00 0.00 0.00 5 1009.9
20260905115002 18 271 27.4 75.6 0.00 0.00 0.00 5 1009.9
20260905114002 18 271 27.4 193.1 0.00 0.00 0.00 5 1009.9
20260905113003 18 271 27.4 193.1 0.00 0.00 0.00 5 1010.2
20260905112002 18 271 27.4 193.1 0.00 0.00 0.00 5 1010.2
20260905111003 18 271 27.4 193.1 0.00 0.00 0.00 5 1010.2
20260905110002 18 271 27.4 193.1 0.00 0.00 0.00 5 1010.2
20260905105003 18 270 25.7 193.1 0.00 0.00 0.00 6 1010.3
20260905104001 18 270 25.7 193.1 0.00 0.00 0.00 6 1010.3
20260905103003 18 270 25.7 1203.8 0.00 0.00 0.00 6 1010.3
20260905102002 18 270 25.7 748.3 0.00 0.00 0.00 6 691.6
20260905101003 18 270 25.7 465.1 0.00 0.00 0.00 6 1010.0
20260905100003 18 270 25.7 465.1 0.00 0.00 0.00 6 1010.0
20260905095003 17 269 25.7 289.7 0.00 0.00 0.00 6 1010.0
20260905094002 17 269 25.7 180.2 0.00 0.00 0.00 6 1010.0
20260905093002 17 269 25.7 112.7 0.00 0.00 0.00 6 1010.1
20260905092003 17 269 25.7 112.7 0.00 0.00 0.00 6 1010.1
20260905091003 17 269 25.7 70.8 0.00 0.00 0.00 6 1010.1
20260905090003 17 269 25.7 197.9 0.00 0.00 0.00 6 1010.0
20260905085001 16 263 24.1 197.9 0.00 0.00 0.00 7 1009.5
20260905084003 16 263 24.1 197.9 0.00 0.00 0.00 7 1009.5
20260905083003 16 263 24.1 197.9 0.00 0.00 0.00 7 1009.5
20260905082002 16 263 24.1 197.9 0.00 0.00 0.00 7 1009.5
20260905081003 16 263 24.1 197.9 0.00 0.00 0.00 7 1008.4
20260905080003 16 263 24.1 197.9 0.00 0.00 0.00 7 1008.4
20260905075002 15 265 20.9 1234.4 0.00 0.00 0.00 8 1008.4
20260905074003 15 265 20.9 1234.4 0.00 0.00 0.00 8 1008.4
20260905073001 15 265 20.9 767.7 0.00 0.00 0.00 8 1008.4
20260905072002 15 265 20.9 478.0 0.00 0.00 0.00 8 1008.4
20260905071003 15 265 20.9 478.0 0.00 0.00 0.00 8 1008.4
20260905070003 15 265 20.9 297.7 0.00 0.00 0.00 8 1008.4
20260905065003 15 262 20.9 297.7 0.00 0.00 0.00 8 1008.4
20260905064001 15 262 20.9 185.1 0.00 0.00 0.00 8 1008.4
20260905063002 15 262 20.9 185.1 0.00 0.00 0.00 8 1008.4
20260905062003 15 262 20.9 115.9 0.00 0.00 0.00 8 1008.4
20260905061003 15 262 20.9 72.4 0.00 0.00 0.00 8 1008.4
20260905060003 15 262 20.9 72.4 0.00 0.00 0.00 8 1008.4
20260905055003 15 265 19.3 206.0 0.00 0.00 0.00 8 1008.4
20260905054002 15 265 19.3 206.0 0.00 0.00 0.00 8 1008.0
20260905053003 15 265 19.3 206.0 0.00 0.00 0.00 8 1008.0
20260905052002 15 265 19.3 206.0 0.00 0.00 0.00 8 1008.0
20260905051002 15 265 19.3 206.0 0.00 0.00 0.00 8 1007.9
20260905050004 15 265 19.3 206.0 0.00 0.00 0.00 8 1007.8
20260905045001 15 271 19.3 206.0 0.00 0.00 0.00 8 1007.8
20260905044002 15 271 19.3 1289.1 0.00 0.00 0.00 8 1007.3
20260905043002 15 271 19.3 1289.1 0.00 0.00 0.00 8 1007.3
20260905042002 15 271 19.3 801.5 0.00 0.00 0.00 8 1007.3
20260905041001 15 271 19.3 498.9 0.00 0.00 0.00 8 1007.3
20260905040002 15 271 19.3 310.6 0.00 0.00 0.00 8 1007.1
20260905035003 16 269 20.9 193.1 0.00 0.00 0.00 8 1007.1
20260905034003 16 269 20.9 193.1 0.00 0.00 0.00 8 1007.1
20260905033002 16 269 20.9 120.7 0.00 0.00 0.00 8 1006.6
20260905032002 16 269 20.9 75.6 0.00 0.00 0.00 8 1006.6
20260905031002 16 269 20.9 75.6 0.00 0.00 0.00 8 1006.6
20260905030002 16 269 20.9 218.9 0.00 0.00 0.00 8 1006.5
20260905025003 16 268 22.5 218.9 0.00 0.00 0.00 8 1006.2
20260905024002 16 268 22.5 218.9 0.00 0.00 0.00 8 1006.0
20260905023002 16 268 22.5 218.9 0.00 0.00 0.00 8 1006.0
20260905022003 16 268 22.5 218.9 0.00 0.00 0.00 8 1005.8
20260905021002 16 268 22.5 218.9 0.00 0.00 0.00 8 723.4
20260905020003 16 268 22.5 218.9 0.00 0.00 0.00 8 1005.6
20260905015002 17 270 24.1 218.9 0.00 0.00 0.00 8 1005.4
20260905014002 17 270 24.1 1369.6 0.00 0.00 0.00 8 1005.1
20260905013002 17 270 24.1 851.3 0.00 0.00 0.00 8 1005.2
20260905012003 17 270 24.1 851.3 0.00 0.00 0.00 8 1005.1
20260905011002 17 270 24.1 529.5 0.00 0.00 0.00 8 1005.0
20260905010002 17 270 24.1 329.9 0.00 0.00 0.00 8 1005.1
20260905005002 17 262 22.5 206.0 0.00 0.00 0.00 8 1005.3
20260905004002 17 262 22.5 128.7 0.00 0.00 0.00 8 1005.3
20260905003005 17 262 22.5 80.5 0.00 0.00 0.00 8 1004.8
20260905002002 17 262 22.5 80.5 0.00 0.00 0.00 8 1004.5
20260905001002 17 262 22.5 251.1 0.00 0.00 0.00 8 1004.7
20260905000002 17 262 22.5 251.1 0.00 0.00 0.00 8 1004.7
20260904235002 17 261 24.1 251.1 0.00 0.00 0.00 7 1004.6
20260904234002 17 261 24.1 251.1 0.00 0.00 0.00 7 1004.7
20260904233002 17 261 24.1 251.1 0.00 0.00 0.00 7 1004.7
20260904232002 17 261 24.1 251.1 0.00 0.00 0.00 7 1004.5
20260904231002 17 261 24.1 251.1 0.00 0.00 0.00 7 1004.4
20260904230002 17 261 24.1 251.1 0.00 0.00 0.00 7 1003.8
20260904225002 17 257 24.1 1565.9 0.00 0.00 0.00 7 1003.5
20260904224001 17 257 24.1 1565.9 0.00 0.00 0.00 7 1003.8
20260904223003 17 257 24.1 973.7 0.00 0.00 0.00 7 1003.9
20260904222002 17 257 24.1 605.1 0.00 0.00 0.00 7 1003.7
20260904221002 17 257 24.1 605.1 0.00 0.00 0.00 7 1003.9
20260904220002 17 257 24.1 376.6 0.00 0.00 0.00 7 1003.6
20260904215002 18 254 22.5 376.6 0.00 0.00 0.00 8 1003.3
20260904214002 18 254 22.5 235.0 0.00 0.00 0.00 8 1003.2
20260904213002 18 254 22.5 235.0 0.00 0.00 0.00 8 1003.2
20260904212003 18 254 22.5 146.5 0.00 0.00 0.00 8 1003.2
20260904211002 18 254 22.5 146.5 0.00 0.00 0.00 8 1002.8
20260904210004 18 254 22.5 91.7 0.00 0.00 0.00 8 1001.8
20260904205003 18 266 22.5 162.5 0.00 0.00 0.00 8 1002.0
20260904204003 18 266 22.5 162.5 0.00 0.00 0.00 8 1002.5
20260904203002 18 266 22.5 162.5 0.00 0.00 0.00 8 1002.4
20260904202003 18 266 22.5 162.5 0.00 0.00 0.00 8 1002.5
20260904201002 18 266 22.5 162.5 0.00 0.00 0.00 8 1002.3
20260904200003 18 266 22.5 162.5 0.00 0.00 0.00 8 1002.4
20260904195002 18 268 25.7 162.5 0.00 0.00 0.00 9 1002.6
20260904194003 18 268 25.7 1012.3 0.00 0.00 0.00 9 1002.6
20260904193002 18 268 25.7 1012.3 0.00 0.00 0.00 9 1002.2
20260904192002 18 268 25.7 629.3 0.00 0.00 0.00 9 1001.7
20260904191002 18 268 25.7 629.3 0.00 0.00 0.00 9 1002.1
20260904190002 18 268 25.7 391.1 0.00 0.00 0.00 9 1002.5
20260904185002 18 276 29.0 391.1 0.00 0.00 0.00 9 1002.5
20260904184003 18 276 29.0 243.0 0.00 0.00 0.00 9 1002.2
20260904183002 18 276 29.0 243.0 0.00 0.00 0.00 9 1002.1
20260904182003 18 276 29.0 151.3 0.00 0.00 0.00 9 1001.9
20260904181002 18 276 29.0 151.3 0.00 0.00 0.00 9 1002.0
20260904180002 18 276 29.0 95.0 0.00 0.00 0.00 9 1001.6
20260904175002 23 238 25.7 95.0 0.00 0.00 0.00 6 1001.1
20260904174002 23 238 25.7 95.0 0.00 0.00 0.00 6 1000.7
20260904173002 23 238 25.7 460.3 0.00 0.00 0.00 6 999.1
20260904172002 23 238 25.7 286.5 0.00 0.00 0.00 6 999.1
20260904171002 23 238 25.7 286.5 0.00 0.00 0.00 6 999.2
20260904170003 23 238 25.7 178.6 0.00 0.00 0.00 6 999.5
20260904165002 24 226 22.5 111.0 0.00 0.00 0.00 6 999.7
20260904164002 24 226 22.5 111.0 0.00 0.00 0.00 6 999.8
20260904163002 24 226 22.5 162.5 0.00 0.00 0.00 6 999.9
20260904162002 24 226 22.5 162.5 0.00 0.00 0.00 6 1000.2
20260904161002 24 226 22.5 162.5 0.00 0.00 0.00 6 1000.3
20260904160002 24 226 22.5 162.5 0.00 0.00 0.00 6 1000.2
20260904155003 23 232 22.5 162.5 0.00 0.00 0.00 6 1000.3
20260904154003 23 232 22.5 162.5 0.00 0.00 0.00 6 1000.5
20260904153003 23 232 22.5 162.5 0.00 0.00 0.00 6 1000.5
20260904152002 23 232 22.5 1012.3 0.00 0.00 0.00 6 1001.0
20260904151002 23 232 22.5 1012.3 0.00 0.00 0.00 6 1001.0
20260904150002 23 232 22.5 629.3 0.00 0.00 0.00 6 1001.0
20260904145003 23 223 22.5 391.1 0.00 0.00 0.00 6 1001.2
20260904144002 23 223 22.5 243.0 0.00 0.00 0.00 6 1001.2
20260904143003 23 223 22.5 151.3 0.00 0.00 0.00 6 1001.5
20260904142003 23 223 22.5 95.0 0.00 0.00 0.00 6 1001.4
20260904141002 23 223 22.5 95.0 0.00 0.00 0.00 6 1001.6
20260904140002 23 223 22.5 197.9 0.00 0.00 0.00 6 1002.3
20260904135002 22 235 25.7 197.9 0.00 0.00 0.00 6 1002.5
20260904134002 22 235 25.7 197.9 0.00 0.00 0.00 6 1002.5
20260904133002 22 235 25.7 197.9 0.00 0.00 0.00 6 1003.1